Weather History for Jerez de la Frontera, Spain

Change the Weather History Date:

Sunday, December 8, 2013

  Actual Average Record
Temperature  
Mean Temperature 50 °F -  
Max Temperature 66 °F 60 °F 68 °F (2001)
Min Temperature 34 °F 42 °F 28 °F (1998)
Degree Days  
Heating Degree Days 15    
Moisture  
Dew Point 39 °F    
Average Humidity 69    
Maximum Humidity 100    
Minimum Humidity 31    
Precipitation  
Precipitation 0.00 in 0.14 in - ()
Sea Level Pressure  
Sea Level Pressure 30.29 in    
Wind  
Wind Speed 2 mph ()    
Max Wind Speed 9 mph    
Max Gust Speed -    
Visibility 7.8 miles    
Events      
Averages and records for this station are not official NWS values.
T = Trace of Precipitation, MM = Missing Value Source: Averaged Metar Reports

Daily Weather History Graph

Daily Weather History Graph

Search for Another Location

Airport:

Trip Planner

Search our weather history database for the weather conditions in past years. The results will help you decide how hot, cold, wet, or windy it might be!

Date:

Astronomy

Dec. 08, 2013 Rise Set
Actual Time 8:24 AM CET 6:07 PM CET
Civil Twilight 7:55 AM CET 6:36 PM CET
Nautical Twilight 7:23 AM CET 7:08 PM CET
Astronomical Twilight 6:51 AM CET 7:40 PM CET
Moon 12:43 PM CET (12/8) No Moon Set
Length of Visible Light 10h 41m
Length of Day
9h 43m
Waxing Crescent, 37% of the Moon is Illuminated
Dec 8
Waxing Crescent
Dec 9
First Quarter
Dec 17
Full
Dec 25
Last Quarter
Jan 1
New

Hourly Weather History & Observations

Time (CET) Temp. Dew Point Humidity Pressure Visibility Wind Dir Wind Speed Gust Speed Precip Events Conditions
12:00 AM 41 °F 37 °F 80% 30.30 in - NNE 3.5 mph - -  
1:00 AM 41 °F 37 °F 80% 30.30 in 9 mi NE 1.2 mph - -  
2:00 AM 40 °F 36 °F 80% 30.29 in - NNE 2.3 mph - -  
3:00 AM 38 °F 35 °F 86% 30.29 in - ENE 1.2 mph - -  
4:30 AM 37.4 °F 35.6 °F 93% 30.27 in - Variable 1.2 mph - N/A   Clear
5:00 AM 36 °F 34 °F 88% 30.28 in - Calm Calm - -  
5:00 AM 37.4 °F 33.8 °F 87% 30.27 in - Calm Calm - N/A   Clear
5:30 AM 37.4 °F 35.6 °F 93% 30.27 in - Variable 1.2 mph - N/A   Clear
6:00 AM 35 °F 33 °F 90% 30.28 in - NE 1.2 mph - -  
6:00 AM 35.6 °F 33.8 °F 93% 30.27 in - Variable 1.2 mph - N/A   Clear
6:30 AM 35.6 °F 33.8 °F 93% 30.27 in - Variable 1.2 mph - N/A   Clear
7:00 AM 35 °F 34 °F 92% 30.29 in 9 mi NNE 1.2 mph - -  
7:00 AM 35.6 °F 33.8 °F 93% 30.27 in - Variable 1.2 mph - N/A   Clear
7:30 AM 35.6 °F 33.8 °F 93% 30.27 in - Variable 1.2 mph - N/A   Clear
8:00 AM 35 °F 33 °F 91% 30.30 in - NNE 2.3 mph - -  
8:00 AM 35.6 °F 33.8 °F 93% 30.27 in - Variable 1.2 mph - N/A   Clear
8:30 AM 35.6 °F 33.8 °F 93% 30.30 in - Variable 2.3 mph - N/A   Clear
9:00 AM 37 °F 35 °F 90% 30.32 in - North 2.3 mph - -  
9:00 AM 35.6 °F 35.6 °F 100% 30.30 in - Variable 2.3 mph - N/A   Clear
9:30 AM 39.2 °F 39.2 °F 100% 30.30 in - Calm Calm - N/A   Clear
10:00 AM 42.8 °F 41.0 °F 93% 30.30 in - Calm Calm - N/A   Clear
10:30 AM 46.4 °F 42.8 °F 87% 30.33 in - Calm Calm - N/A   Clear
11:00 AM 51 °F 42 °F 62% 30.35 in - North 2.3 mph - -  
11:00 AM 50.0 °F 42.8 °F 76% 30.33 in - Variable 1.2 mph - N/A   Clear
11:30 AM 53.6 °F 44.6 °F 72% 30.33 in - Variable 2.3 mph - N/A   Clear
12:00 PM 58 °F 45 °F 53% 30.34 in - North 1.2 mph - -  
12:00 PM 57.2 °F 44.6 °F 63% 30.33 in - Variable 1.2 mph - N/A   Clear
12:30 PM 59.0 °F 46.4 °F 63% 30.33 in - Variable 1.2 mph - N/A   Clear
1:00 PM 62 °F 45 °F 43% 30.32 in 19 mi North 2.3 mph - -   Scattered Clouds
1:00 PM 60.8 °F 44.6 °F 55% 30.30 in 6.2 mi Variable 1.2 mph - N/A   Partly Cloudy
1:30 PM 62.6 °F 44.6 °F 52% 30.30 in 6.2 mi Variable 2.3 mph - N/A   Partly Cloudy
2:00 PM 65 °F 44 °F 34% 30.30 in - NNW 2.3 mph - -  
2:00 PM 62.6 °F 44.6 °F 52% 30.30 in 6.2 mi Variable 1.2 mph - N/A   Partly Cloudy
2:30 PM 62.6 °F 44.6 °F 52% 30.27 in 6.2 mi Variable 1.2 mph - N/A   Partly Cloudy
3:00 PM 65 °F 44 °F 35% 30.28 in - North 4.6 mph - -  
3:00 PM 64.4 °F 44.6 °F 49% 30.27 in 6.2 mi North 5.8 mph - N/A   Partly Cloudy
3:30 PM 64.4 °F 42.8 °F 45% 30.27 in 6.2 mi Variable 2.3 mph - N/A   Partly Cloudy
4:00 PM 64.4 °F 42.8 °F 45% 30.24 in 6.2 mi NNW 3.5 mph - N/A   Partly Cloudy
4:30 PM 64.4 °F 42.8 °F 45% 30.24 in 6.2 mi NNW 6.9 mph - N/A   Partly Cloudy
5:00 PM 64 °F 41 °F 31% 30.27 in - NNW 8.1 mph - -  
5:00 PM 62.6 °F 42.8 °F 48% 30.27 in 6.2 mi NNW 6.9 mph - N/A   Partly Cloudy
5:30 PM 62.6 °F 42.8 °F 48% 30.27 in 6.2 mi North 9.2 mph - N/A   Partly Cloudy
6:00 PM 59 °F 41 °F 39% 30.27 in - North 9.2 mph - -  
6:00 PM 59.0 °F 41.0 °F 51% 30.27 in 6.2 mi North 8.1 mph - N/A   Partly Cloudy
6:30 PM 55.4 °F 41.0 °F 58% 30.27 in 6.2 mi NW 4.6 mph - N/A   Partly Cloudy
7:00 PM 52 °F 39 °F 50% 30.29 in 16 mi NNW 4.6 mph - -   Scattered Clouds
7:00 PM 53.6 °F 39.2 °F 58% 30.27 in 6.2 mi NNW 4.6 mph - N/A   Partly Cloudy
7:30 PM 51.8 °F 39.2 °F 62% 30.27 in 6.2 mi Variable 1.2 mph - N/A   Partly Cloudy
8:00 PM 49 °F 39 °F 59% 30.30 in - SSE 4.6 mph - -  
8:00 PM 50.0 °F 39.2 °F 66% 30.30 in - SSE 4.6 mph - N/A   Clear
8:30 PM 48.2 °F 39.2 °F 71% 30.30 in - Calm Calm - N/A   Clear
9:00 PM 46 °F 36 °F 60% 30.31 in - Calm Calm - -  
9:00 PM 46.4 °F 37.4 °F 71% 30.30 in - Calm Calm - N/A   Clear
9:30 PM 44.6 °F 37.4 °F 76% 30.30 in - Calm Calm - N/A   Clear
10:00 PM 44.6 °F 37.4 °F 76% 30.30 in - Calm Calm - N/A   Clear
10:30 PM 42.8 °F 35.6 °F 76% 30.30 in - Variable 1.2 mph - N/A   Clear
11:00 PM 42 °F 35 °F 69% 30.33 in - ENE 1.2 mph - -  
11:00 PM 42.8 °F 35.6 °F 76% 30.30 in - Variable 1.2 mph - N/A   Clear